(37) Fides
ephemeris date magn radius delta ra dec elong phase
Today18 Jun 202611.73.021 AU2.045 AU19h09m-27°02'160.4°6.5°
Opposition3 Jul 202611.43.006 AU1.992 AU18h55m-27°28'175.3°1.6°
(37) Fides - 2026-06-18
astro.vanbuitenen.nl


 
-1 year
-1 month
-1 day
Now
+1 day
+1 month
+1 year

The interactive orbit chart above shows the body's path through the solar system and its position at the given date. Green and blue lines are shown perpendicular to the ecliptic plane: Green if the path is above the ecliptic plane, blue if it is below. (Left-click and drag to rotate the view; Right-click and drag to move the view; Use scroll wheel to zoom in our out.)

The orbital elements of Fides are:

            e (Eccentricity)                : 0.1745521
            a (Semimajor axis)              : 2.6433615
            i (Inclination)                 : 3.06749
            Ω (Longitude of ascending node) : 7.22728
            ω (Argument of perihelion)      : 62.32992
            M (Mean anomaly)                : 218.71628
            Epoch                           : 2026 Jun 09

            L (Longitude of perihelion)     : 69.52340
            B (Latitude of perihelion)      : 2.71640
            P (Orbital period in years)     : 4.30            
        

The light curve chart below shows the estimated development of the minor planet's magnitude.


The all-sky chart below shows the path of the minor planet over the same period as the light curve. The current position is marked yellow.





The following chart shows the path of the minor planet in the next few days. The field of view is optimized for (~10x50) binoculars and finderscopes.




Ephemerides:
Date       Time       RA (2000)    DEC (2000)    delta   radius  elong  phase   PA    magn
2026-06-18 00:00 UT   19 09 44.1   -27 02 17     2.045    3.021  160.4    6.5   276   11.7 
2026-06-18 06:40 UT   19 09 30.0   -27 02 50     2.043    3.021  160.7    6.4   276   11.7 
2026-06-19 00:00 UT   19 08 52.8   -27 04 16     2.039    3.020  161.5    6.1   277   11.7 
2026-06-20 00:00 UT   19 08 00.6   -27 06 13     2.034    3.019  162.6    5.8   278   11.7 
2026-06-21 00:00 UT   19 07 07.5   -27 08 08     2.029    3.018  163.7    5.4   279   11.7 
2026-06-22 00:00 UT   19 06 13.6   -27 10 01     2.025    3.017  164.8    5.1   281   11.6 
2026-06-23 00:00 UT   19 05 18.9   -27 11 52     2.021    3.016  165.9    4.7   282   11.6 
2026-06-24 00:00 UT   19 04 23.4   -27 13 41     2.016    3.015  167.0    4.3   284   11.6 
2026-06-25 00:00 UT   19 03 27.2   -27 15 27     2.013    3.015  168.1    4.0   286   11.6 
2026-06-26 00:00 UT   19 02 30.3   -27 17 10     2.009    3.014  169.2    3.6   289   11.5 
2026-06-27 00:00 UT   19 01 32.9   -27 18 50     2.006    3.013  170.2    3.3   292   11.5 
2026-06-28 00:00 UT   19 00 35.0   -27 20 28     2.003    3.012  171.2    3.0   295   11.5 
2026-06-29 00:00 UT   18 59 36.5   -27 22 02     2.000    3.011  172.2    2.6   300   11.5 
2026-06-30 00:00 UT   18 58 37.7   -27 23 33     1.998    3.010  173.1    2.3   306   11.4 
2026-07-01 00:00 UT   18 57 38.5   -27 25 01     1.996    3.009  173.9    2.1   314   11.4 
2026-07-02 00:00 UT   18 56 38.9   -27 26 25     1.994    3.008  174.6    1.8   323   11.4 
2026-07-03 00:00 UT   18 55 39.1   -27 27 46     1.993    3.007  175.1    1.7   335   11.4 
2026-07-04 00:00 UT   18 54 39.2   -27 29 03     1.991    3.006  175.4    1.6   349   11.4 
2026-07-05 00:00 UT   18 53 39.1   -27 30 16     1.990    3.005  175.3    1.6     4   11.4 
2026-07-06 00:00 UT   18 52 38.9   -27 31 26     1.990    3.004  175.0    1.7    17   11.4 
2026-07-07 00:00 UT   18 51 38.7   -27 32 31     1.989    3.003  174.4    1.9    29   11.4 
2026-07-08 00:00 UT   18 50 38.6   -27 33 33     1.989    3.002  173.7    2.1    38   11.4 
2026-07-09 00:00 UT   18 49 38.6   -27 34 30     1.989    3.001  172.9    2.4    45   11.4 
2026-07-10 00:00 UT   18 48 38.7   -27 35 24     1.990    3.000  171.9    2.7    50   11.4 
2026-07-11 00:00 UT   18 47 39.1   -27 36 13     1.990    2.999  171.0    3.1    55   11.5 
2026-07-12 00:00 UT   18 46 39.8   -27 36 58     1.991    2.997  169.9    3.4    58   11.5 
2026-07-13 00:00 UT   18 45 40.9   -27 37 39     1.993    2.996  168.9    3.8    61   11.5 
2026-07-14 00:00 UT   18 44 42.4   -27 38 15     1.994    2.995  167.8    4.1    64   11.5 
2026-07-15 00:00 UT   18 43 44.4   -27 38 47     1.996    2.994  166.7    4.5    66   11.6 
2026-07-16 00:00 UT   18 42 46.9   -27 39 15     1.998    2.993  165.6    4.8    68   11.6 
2026-07-17 00:00 UT   18 41 50.1   -27 39 39     2.000    2.992  164.5    5.2    69   11.6 
2026-07-18 00:00 UT   18 40 53.9   -27 39 59     2.003    2.991  163.4    5.6    70   11.6 


    Terminology:
            
    delta:  distance between minor planet and earth in AU
    radius: distance between minor planet and sun in AU
    magn:   magnitude (brightness) estimate    
    ra:     right ascension in hours (24h = 360deg)
    dec:    declination in degrees
    elong:  elongation in degrees (angle sun-earth-minor planet)    
    phase:  phase angle in degrees (angle sun-minor planet-earth)        
    AU:     Astronomical Unit (mean distance between earth and sun: 149597870.7 km
    

Orbital elements provided by the MPC (Minor Planet Center).
Calculations by a modified version of AAPlus, a C# implementation of the AA+ project by PJ Naughter from the algorithms presented in the book "Astronomical Algorithms" by Jean Meeus.
NGC2000 dso catalog and star labels from VizieR as provided by the Strasbourg astronomical Data Center.
Tycho2 catalog from the ESO archive.